Tracking 19637 objects as of 18-Apr-2019
HD Live streaming from Space Station
objects crossing your sky now

THORAD DELTA 1 DEB

Track THORAD DELTA 1 DEB now!
10-day predictions


NORAD ID: 9695
Int'l Code: 1974-089DU
Perigee: 875.5 km
Apogee: 1,311.9 km
Inclination: 103.0 °
Period: 107.0 minutes
Semi major axis: 7464 km
RCS: 0.0348 m2 (small)
Launch date: November 15, 1974
Source: United States (US)
Launch site: AIR FORCE WESTERN TEST RANGE (AFWTR)

Note: This is SATELLITE DEBRIS
aabbcc
Your satellite tracking list
Your tracking list is empty




NASA's NSSDC Master Catalog

Two Line Element Set (TLE):
1  9695U 74089DU  19107.75145107 +.00000357 +00000-0 +54745-3 0  9998
2  9695 102.9903 026.4032 0292308 190.2058 169.3040 13.46110788087558
Source of the keplerian elements: AFSPC